Year,Month,Day,Hour,Minute,Value (Times are PST for temperature in C)
2017,02,16,00,00,9.00
2017,02,16,00,01,9.00
2017,02,16,00,02,9.00
2017,02,16,00,03,9.00
2017,02,16,00,04,8.90
2017,02,16,00,05,8.90
2017,02,16,00,06,8.90
2017,02,16,00,07,8.90
2017,02,16,00,08,8.90
2017,02,16,00,09,8.90
2017,02,16,00,10,8.90
2017,02,16,00,11,8.90
2017,02,16,00,12,8.90
2017,02,16,00,13,8.90
2017,02,16,00,14,8.90
2017,02,16,00,15,8.90
2017,02,16,00,16,8.90
2017,02,16,00,17,8.90
2017,02,16,00,18,8.90
2017,02,16,00,19,8.90
2017,02,16,00,20,8.90
2017,02,16,00,21,8.80
2017,02,16,00,22,8.80
2017,02,16,00,23,8.80
2017,02,16,00,24,8.90
2017,02,16,00,25,8.90
2017,02,16,00,26,8.90
2017,02,16,00,27,8.90
2017,02,16,00,28,8.90
2017,02,16,00,29,9.00
2017,02,16,00,30,9.00
2017,02,16,00,31,9.00
2017,02,16,00,32,9.00
2017,02,16,00,33,9.00
2017,02,16,00,34,9.10
2017,02,16,00,35,9.10
2017,02,16,00,36,9.10
2017,02,16,00,37,9.10
2017,02,16,00,38,9.00
2017,02,16,00,39,9.00
2017,02,16,00,40,9.00
2017,02,16,00,41,8.90
2017,02,16,00,42,8.90
2017,02,16,00,43,8.90
2017,02,16,00,44,8.90
2017,02,16,00,45,8.80
2017,02,16,00,46,8.80
2017,02,16,00,47,8.80
2017,02,16,00,48,8.80
2017,02,16,00,49,8.70
2017,02,16,00,50,8.70
2017,02,16,00,51,8.70
2017,02,16,00,52,8.70
2017,02,16,00,53,8.70
2017,02,16,00,54,8.70
2017,02,16,00,55,8.70
2017,02,16,00,56,8.70
2017,02,16,00,57,8.70
2017,02,16,00,58,8.70
2017,02,16,00,59,8.70
2017,02,16,01,00,8.70
2017,02,16,01,01,8.70
2017,02,16,01,02,8.70
2017,02,16,01,03,8.70
2017,02,16,01,04,8.70
2017,02,16,01,05,8.70
2017,02,16,01,06,8.70
2017,02,16,01,07,8.70
2017,02,16,01,08,8.70
2017,02,16,01,09,8.70
2017,02,16,01,10,8.70
2017,02,16,01,11,8.70
2017,02,16,01,12,8.70
2017,02,16,01,13,8.70
2017,02,16,01,14,8.70
2017,02,16,01,15,8.70
2017,02,16,01,16,8.80
2017,02,16,01,17,8.80
2017,02,16,01,18,8.70
2017,02,16,01,19,8.70
2017,02,16,01,20,8.70
2017,02,16,01,21,8.70
2017,02,16,01,22,8.70
2017,02,16,01,23,8.70
2017,02,16,01,24,8.70
2017,02,16,01,25,8.70
2017,02,16,01,26,8.70
2017,02,16,01,27,8.70
2017,02,16,01,28,8.70
2017,02,16,01,29,8.70
2017,02,16,01,30,8.70
2017,02,16,01,31,8.70
2017,02,16,01,32,8.70
2017,02,16,01,33,8.70
2017,02,16,01,34,8.70
2017,02,16,01,35,8.70
2017,02,16,01,36,8.70
2017,02,16,01,37,8.70
2017,02,16,01,38,8.60
2017,02,16,01,39,8.60
2017,02,16,01,40,8.60
2017,02,16,01,41,8.50
2017,02,16,01,42,8.50
2017,02,16,01,43,8.50
2017,02,16,01,44,8.50
2017,02,16,01,45,8.50
2017,02,16,01,46,8.50
2017,02,16,01,47,8.50
2017,02,16,01,48,8.50
2017,02,16,01,49,8.50
2017,02,16,01,50,8.50
2017,02,16,01,51,8.50
2017,02,16,01,52,8.50
2017,02,16,01,53,8.60
2017,02,16,01,54,8.60
2017,02,16,01,55,8.60
2017,02,16,01,56,8.60
2017,02,16,01,57,8.70
2017,02,16,01,58,8.70
2017,02,16,01,59,8.80
2017,02,16,02,00,8.90
2017,02,16,02,01,8.90
2017,02,16,02,02,9.00
2017,02,16,02,03,9.00
2017,02,16,02,04,9.00
2017,02,16,02,05,9.00
2017,02,16,02,06,9.00
2017,02,16,02,07,9.10
2017,02,16,02,08,9.10
2017,02,16,02,09,9.10
2017,02,16,02,10,9.10
2017,02,16,02,11,9.10
2017,02,16,02,12,9.20
2017,02,16,02,13,9.20
2017,02,16,02,14,9.20
2017,02,16,02,15,9.20
2017,02,16,02,16,9.20
2017,02,16,02,17,9.20
2017,02,16,02,18,9.20
2017,02,16,02,19,9.20
2017,02,16,02,20,9.20
2017,02,16,02,21,9.20
2017,02,16,02,22,9.20
2017,02,16,02,23,9.20
2017,02,16,02,24,9.20
2017,02,16,02,25,9.20
2017,02,16,02,26,9.20
2017,02,16,02,27,9.10
2017,02,16,02,28,9.10
2017,02,16,02,29,9.00
2017,02,16,02,30,9.00
2017,02,16,02,31,9.00
2017,02,16,02,32,9.00
2017,02,16,02,33,8.90
2017,02,16,02,34,8.90
2017,02,16,02,35,9.00
2017,02,16,02,36,9.00
2017,02,16,02,37,9.00
2017,02,16,02,38,9.00
2017,02,16,02,39,9.00
2017,02,16,02,40,9.00
2017,02,16,02,41,9.00
2017,02,16,02,42,9.10
2017,02,16,02,43,9.10
2017,02,16,02,44,9.20
2017,02,16,02,45,9.20
2017,02,16,02,46,9.30
2017,02,16,02,47,9.40
2017,02,16,02,48,9.50
2017,02,16,02,49,9.60
2017,02,16,02,50,9.60
2017,02,16,02,51,9.60
2017,02,16,02,52,9.50
2017,02,16,02,53,9.50
2017,02,16,02,54,9.50
2017,02,16,02,55,9.40
2017,02,16,02,56,9.40
2017,02,16,02,57,9.40
2017,02,16,02,58,9.30
2017,02,16,02,59,9.30
2017,02,16,03,00,9.30
2017,02,16,03,01,9.30
2017,02,16,03,02,9.30
2017,02,16,03,03,9.20
2017,02,16,03,04,9.20
2017,02,16,03,05,9.20
2017,02,16,03,06,9.20
2017,02,16,03,07,9.10
2017,02,16,03,08,9.10
2017,02,16,03,09,9.10
2017,02,16,03,10,9.00
2017,02,16,03,11,9.00
2017,02,16,03,12,9.00
2017,02,16,03,13,9.00
2017,02,16,03,14,9.00
2017,02,16,03,15,9.00
2017,02,16,03,16,9.00
2017,02,16,03,17,9.00
2017,02,16,03,18,9.00
2017,02,16,03,19,8.90
2017,02,16,03,20,8.90
2017,02,16,03,21,8.90
2017,02,16,03,22,8.90
2017,02,16,03,23,8.90
2017,02,16,03,24,8.90
2017,02,16,03,25,8.90
2017,02,16,03,26,8.90
2017,02,16,03,27,8.90
2017,02,16,03,28,8.90
2017,02,16,03,29,8.90
2017,02,16,03,30,8.80
2017,02,16,03,31,8.80
2017,02,16,03,32,8.80
2017,02,16,03,33,8.80
2017,02,16,03,34,8.80
2017,02,16,03,35,8.80
2017,02,16,03,36,8.80
2017,02,16,03,37,8.80
2017,02,16,03,38,8.80
2017,02,16,03,39,8.80
2017,02,16,03,40,8.90
2017,02,16,03,41,8.90
2017,02,16,03,42,8.90
2017,02,16,03,43,8.90
2017,02,16,03,44,8.90
2017,02,16,03,45,8.90
2017,02,16,03,46,8.90
2017,02,16,03,47,8.90
2017,02,16,03,48,8.90
2017,02,16,03,49,8.90
2017,02,16,03,50,8.90
2017,02,16,03,51,9.00
2017,02,16,03,52,9.00
2017,02,16,03,53,9.00
2017,02,16,03,54,9.00
2017,02,16,03,55,9.00
2017,02,16,03,56,9.10
2017,02,16,03,57,9.10
2017,02,16,03,58,9.10
2017,02,16,03,59,9.10
2017,02,16,04,00,9.10
2017,02,16,04,01,9.10
2017,02,16,04,02,9.10
2017,02,16,04,03,9.10
2017,02,16,04,04,9.20
2017,02,16,04,05,9.20
2017,02,16,04,06,9.20
2017,02,16,04,07,9.20
2017,02,16,04,08,9.20
2017,02,16,04,09,9.20
2017,02,16,04,10,9.20
2017,02,16,04,11,9.30
2017,02,16,04,12,9.30
2017,02,16,04,13,9.30
2017,02,16,04,14,9.30
2017,02,16,04,15,9.30
2017,02,16,04,16,9.30
2017,02,16,04,17,9.40
2017,02,16,04,18,9.40
2017,02,16,04,19,9.50
2017,02,16,04,20,9.50
2017,02,16,04,21,9.50
2017,02,16,04,22,9.50
2017,02,16,04,23,9.50
2017,02,16,04,24,9.40
2017,02,16,04,25,9.40
2017,02,16,04,26,9.50
2017,02,16,04,27,9.50
2017,02,16,04,28,9.50
2017,02,16,04,29,9.50
2017,02,16,04,30,9.50
2017,02,16,04,31,9.50
2017,02,16,04,32,9.50
2017,02,16,04,33,9.50
2017,02,16,04,34,9.50
2017,02,16,04,35,9.50
2017,02,16,04,36,9.50
2017,02,16,04,37,9.50
2017,02,16,04,38,9.50
2017,02,16,04,39,9.50
2017,02,16,04,40,9.50
2017,02,16,04,41,9.50
2017,02,16,04,42,9.50
2017,02,16,04,43,9.50
2017,02,16,04,44,9.50
2017,02,16,04,45,9.50
2017,02,16,04,46,9.50
2017,02,16,04,47,9.60
2017,02,16,04,48,9.60
2017,02,16,04,49,9.60
2017,02,16,04,50,9.60
2017,02,16,04,51,9.70
2017,02,16,04,52,9.70
2017,02,16,04,53,9.70
2017,02,16,04,54,9.60
2017,02,16,04,55,9.60
2017,02,16,04,56,9.60
2017,02,16,04,57,9.70
2017,02,16,04,58,9.70
2017,02,16,04,59,9.70
2017,02,16,05,00,9.70
2017,02,16,05,01,9.70
2017,02,16,05,02,9.70
2017,02,16,05,03,9.70
2017,02,16,05,04,9.70
2017,02,16,05,05,9.70
2017,02,16,05,06,9.70
2017,02,16,05,07,9.70
2017,02,16,05,08,9.70
2017,02,16,05,09,9.70
2017,02,16,05,10,9.70
2017,02,16,05,11,9.70
2017,02,16,05,12,9.70
2017,02,16,05,13,9.70
2017,02,16,05,14,9.70
2017,02,16,05,15,9.70
2017,02,16,05,16,9.70
2017,02,16,05,17,9.70
2017,02,16,05,18,9.70
2017,02,16,05,19,9.70
2017,02,16,05,20,9.70
2017,02,16,05,21,9.70
2017,02,16,05,22,9.70
2017,02,16,05,23,9.70
2017,02,16,05,24,9.70
2017,02,16,05,25,9.70
2017,02,16,05,26,9.70
2017,02,16,05,27,9.70
2017,02,16,05,28,9.70
2017,02,16,05,29,9.70
2017,02,16,05,30,9.70
2017,02,16,05,31,9.70
2017,02,16,05,32,9.70
2017,02,16,05,33,9.70
2017,02,16,05,34,9.70
2017,02,16,05,35,9.70
2017,02,16,05,36,9.70
2017,02,16,05,37,9.70
2017,02,16,05,38,9.70
2017,02,16,05,39,9.70
2017,02,16,05,40,9.70
2017,02,16,05,41,9.70
2017,02,16,05,42,9.70
2017,02,16,05,43,9.70
2017,02,16,05,44,9.70
2017,02,16,05,45,9.70
2017,02,16,05,46,9.70
2017,02,16,05,47,9.70
2017,02,16,05,48,9.70
2017,02,16,05,49,9.70
2017,02,16,05,50,9.70
2017,02,16,05,51,9.70
2017,02,16,05,52,9.60
2017,02,16,05,53,9.60
2017,02,16,05,54,9.60
2017,02,16,05,55,9.60
2017,02,16,05,56,9.60
2017,02,16,05,57,9.60
2017,02,16,05,58,9.60
2017,02,16,05,59,9.60
2017,02,16,06,00,9.60
2017,02,16,06,01,9.60
2017,02,16,06,02,9.50
2017,02,16,06,03,9.50
2017,02,16,06,04,9.50
2017,02,16,06,05,9.50
2017,02,16,06,06,9.50
2017,02,16,06,07,9.50
2017,02,16,06,08,9.50
2017,02,16,06,09,9.50
2017,02,16,06,10,9.50
2017,02,16,06,11,9.50
2017,02,16,06,12,9.40
2017,02,16,06,13,9.40
2017,02,16,06,14,9.40
2017,02,16,06,15,9.40
2017,02,16,06,16,9.40
2017,02,16,06,17,9.40
2017,02,16,06,18,9.30
2017,02,16,06,19,9.30
2017,02,16,06,20,9.30
2017,02,16,06,21,9.30
2017,02,16,06,22,9.30
2017,02,16,06,23,9.30
2017,02,16,06,24,9.30
2017,02,16,06,25,9.30
2017,02,16,06,26,9.30
2017,02,16,06,27,9.30
2017,02,16,06,28,9.30
2017,02,16,06,29,9.30
2017,02,16,06,30,9.30
2017,02,16,06,31,9.20
2017,02,16,06,32,9.20
2017,02,16,06,33,9.20
2017,02,16,06,34,9.20
2017,02,16,06,35,9.20
2017,02,16,06,36,9.20
2017,02,16,06,37,9.30
2017,02,16,06,38,9.30
2017,02,16,06,39,9.30
2017,02,16,06,40,9.30
2017,02,16,06,41,9.30
2017,02,16,06,42,9.30
2017,02,16,06,43,9.20
2017,02,16,06,44,9.20
2017,02,16,06,45,9.20
2017,02,16,06,46,9.20
2017,02,16,06,47,9.20
2017,02,16,06,48,9.20
2017,02,16,06,49,9.20
2017,02,16,06,50,9.20
2017,02,16,06,51,9.20
2017,02,16,06,52,9.20
2017,02,16,06,53,9.20
2017,02,16,06,54,9.20
2017,02,16,06,55,9.20
2017,02,16,06,56,9.20
2017,02,16,06,57,9.20
2017,02,16,06,58,9.20
2017,02,16,06,59,9.20
2017,02,16,07,00,9.20
2017,02,16,07,01,9.20
2017,02,16,07,02,9.20
2017,02,16,07,03,9.20
2017,02,16,07,04,9.20
2017,02,16,07,05,9.20
2017,02,16,07,06,9.20
2017,02,16,07,07,9.20
2017,02,16,07,08,9.20
2017,02,16,07,09,9.20
2017,02,16,07,10,9.20
2017,02,16,07,11,9.20
2017,02,16,07,12,9.10
2017,02,16,07,13,9.10
2017,02,16,07,14,9.10
2017,02,16,07,15,9.10
2017,02,16,07,16,9.10
2017,02,16,07,17,9.10
2017,02,16,07,18,9.10
2017,02,16,07,19,9.10
2017,02,16,07,20,9.10
2017,02,16,07,21,9.00
2017,02,16,07,22,9.00
2017,02,16,07,23,9.00
2017,02,16,07,24,9.00
2017,02,16,07,25,9.00
2017,02,16,07,26,9.00
2017,02,16,07,27,9.00
2017,02,16,07,28,9.00
2017,02,16,07,29,9.00
2017,02,16,07,30,9.00
2017,02,16,07,31,9.10
2017,02,16,07,32,9.10
2017,02,16,07,33,9.10
2017,02,16,07,34,9.10
2017,02,16,07,35,9.10
2017,02,16,07,36,9.10
2017,02,16,07,37,9.10
2017,02,16,07,38,9.00
2017,02,16,07,39,9.00
2017,02,16,07,40,9.00
2017,02,16,07,41,9.00
2017,02,16,07,42,9.00
2017,02,16,07,43,9.00
2017,02,16,07,44,9.00
2017,02,16,07,45,9.00
2017,02,16,07,46,9.00
2017,02,16,07,47,9.00
2017,02,16,07,48,9.00
2017,02,16,07,49,9.00
2017,02,16,07,50,9.00
2017,02,16,12,04,11.20
2017,02,16,12,05,11.20
2017,02,16,12,06,11.20
2017,02,16,12,07,11.20
2017,02,16,12,08,11.30
2017,02,16,12,09,11.30
2017,02,16,12,10,11.40
2017,02,16,12,11,11.50
2017,02,16,12,12,11.60
2017,02,16,12,13,11.60
2017,02,16,12,14,11.70
2017,02,16,12,15,11.60
2017,02,16,12,16,11.60
2017,02,16,12,17,11.60
2017,02,16,12,18,11.60
2017,02,16,12,19,11.60
2017,02,16,12,20,11.60
2017,02,16,12,21,11.60
2017,02,16,12,22,11.60
2017,02,16,12,23,11.40
2017,02,16,12,24,11.40
2017,02,16,12,25,11.40
2017,02,16,12,26,11.40
2017,02,16,12,27,11.40
2017,02,16,12,28,11.40
2017,02,16,12,29,11.40
2017,02,16,12,30,11.40
2017,02,16,12,31,11.40
2017,02,16,12,32,11.30
2017,02,16,12,33,11.30
2017,02,16,12,34,11.30
2017,02,16,12,35,11.30
2017,02,16,12,36,11.30
2017,02,16,12,37,11.30
2017,02,16,12,38,11.30
2017,02,16,12,39,11.30
2017,02,16,12,40,11.30
2017,02,16,12,41,11.30
2017,02,16,12,42,11.20
2017,02,16,12,43,11.20
2017,02,16,12,44,11.20
2017,02,16,12,45,11.20
2017,02,16,12,46,11.20
2017,02,16,12,47,11.20
2017,02,16,12,48,11.20
2017,02,16,12,49,11.30
2017,02,16,12,50,11.30
2017,02,16,12,51,11.30
2017,02,16,12,52,11.30
2017,02,16,12,53,11.30
2017,02,16,12,54,11.30
2017,02,16,12,55,11.30
2017,02,16,12,56,11.30
2017,02,16,12,57,11.30
2017,02,16,12,58,11.30
2017,02,16,12,59,11.30
2017,02,16,13,00,11.30
2017,02,16,13,01,11.40
2017,02,16,13,02,11.40
2017,02,16,13,03,11.40
2017,02,16,13,04,11.40
2017,02,16,13,05,11.40
2017,02,16,13,06,11.40
2017,02,16,13,07,11.40
2017,02,16,13,08,11.40
2017,02,16,13,09,11.40
2017,02,16,13,10,11.40
2017,02,16,13,11,11.40
2017,02,16,13,12,11.40
2017,02,16,13,13,11.40
2017,02,16,13,14,11.40
2017,02,16,13,15,11.40
2017,02,16,13,16,11.40
2017,02,16,13,17,11.40
2017,02,16,13,18,11.40
2017,02,16,13,19,11.40
2017,02,16,13,20,11.40
2017,02,16,13,21,11.40
2017,02,16,13,22,11.40
2017,02,16,13,23,11.50
2017,02,16,13,24,11.60
2017,02,16,13,25,11.60
2017,02,16,13,26,11.60
2017,02,16,13,27,11.60
2017,02,16,13,28,11.70
2017,02,16,13,29,11.70
2017,02,16,13,30,11.70
2017,02,16,13,31,11.80
2017,02,16,13,32,11.80
2017,02,16,13,33,11.80
2017,02,16,13,34,11.80
2017,02,16,13,35,11.80
2017,02,16,13,36,11.80
2017,02,16,13,37,11.80
2017,02,16,13,38,11.90
2017,02,16,13,39,11.90
2017,02,16,13,40,11.90
2017,02,16,13,41,11.90
2017,02,16,13,42,11.80
2017,02,16,13,43,11.80
2017,02,16,13,44,11.90
2017,02,16,13,45,11.90
2017,02,16,13,46,11.90
2017,02,16,13,47,11.90
2017,02,16,13,48,11.90
2017,02,16,13,49,11.90
2017,02,16,13,50,11.90
2017,02,16,13,51,11.90
2017,02,16,13,52,11.80
2017,02,16,13,53,11.90
2017,02,16,13,54,11.90
2017,02,16,13,55,11.90
2017,02,16,13,56,11.80
2017,02,16,13,57,11.80
2017,02,16,13,58,11.80
2017,02,16,13,59,11.80
2017,02,16,14,00,11.80
2017,02,16,14,01,11.80
2017,02,16,14,02,11.80
2017,02,16,14,03,11.80
2017,02,16,14,04,11.80
2017,02,16,14,05,11.80
2017,02,16,14,06,11.80
2017,02,16,14,07,11.80
2017,02,16,14,08,11.80
2017,02,16,14,09,11.80
2017,02,16,14,10,11.80
2017,02,16,14,11,11.80
2017,02,16,14,12,11.80
2017,02,16,14,13,11.80
2017,02,16,14,14,11.80
2017,02,16,14,15,11.80
2017,02,16,14,16,11.80
2017,02,16,14,17,11.80
2017,02,16,14,18,11.80
2017,02,16,14,19,11.80
2017,02,16,14,20,11.80
2017,02,16,14,21,11.80
2017,02,16,14,22,11.80
2017,02,16,14,23,11.80
2017,02,16,14,24,11.80
2017,02,16,14,25,11.70
2017,02,16,14,26,11.70
2017,02,16,14,27,11.60
2017,02,16,14,28,11.60
2017,02,16,14,29,11.60
2017,02,16,14,30,11.60
2017,02,16,14,31,11.60
2017,02,16,14,32,11.60
2017,02,16,14,33,11.50
2017,02,16,14,34,11.40
2017,02,16,14,35,11.40
2017,02,16,14,36,11.40
2017,02,16,14,37,11.40
2017,02,16,14,38,11.40
2017,02,16,14,39,11.40
2017,02,16,14,40,11.40
2017,02,16,14,41,11.40
2017,02,16,14,42,11.40
2017,02,16,14,43,11.40
2017,02,16,14,44,11.40
2017,02,16,14,45,11.40
2017,02,16,14,46,11.40
2017,02,16,14,47,11.40
2017,02,16,14,48,11.30
2017,02,16,14,49,11.30
2017,02,16,14,50,11.30
2017,02,16,14,51,11.20
2017,02,16,14,52,11.20
2017,02,16,14,53,11.20
2017,02,16,14,54,11.20
2017,02,16,14,55,11.20
2017,02,16,14,56,11.20
2017,02,16,14,57,11.20
2017,02,16,14,58,11.30
2017,02,16,14,59,11.30
2017,02,16,15,00,11.30
2017,02,16,15,01,11.30
2017,02,16,15,02,11.30
2017,02,16,15,03,11.30
2017,02,16,15,04,11.30
2017,02,16,15,05,11.30
2017,02,16,15,06,11.30
2017,02,16,15,07,11.30
2017,02,16,15,08,11.30
2017,02,16,15,09,11.30
2017,02,16,15,10,11.30
2017,02,16,15,11,11.40
2017,02,16,15,12,11.40
2017,02,16,15,13,11.40
2017,02,16,15,14,11.40
2017,02,16,15,15,11.40
2017,02,16,15,16,11.40
2017,02,16,15,17,11.40
2017,02,16,15,18,11.50
2017,02,16,15,19,11.60
2017,02,16,15,20,11.60
2017,02,16,15,21,11.60
2017,02,16,15,22,11.60
2017,02,16,15,23,11.60
2017,02,16,15,24,11.60
2017,02,16,15,25,11.60
2017,02,16,15,26,11.60
2017,02,16,15,27,11.60
2017,02,16,15,28,11.60
2017,02,16,15,29,11.60
2017,02,16,15,30,11.60
2017,02,16,15,31,11.60
2017,02,16,15,32,11.60
2017,02,16,15,33,11.60
2017,02,16,15,34,11.60
2017,02,16,15,35,11.60
2017,02,16,15,36,11.60
2017,02,16,15,37,11.60
2017,02,16,15,38,11.60
2017,02,16,15,39,11.60
2017,02,16,15,40,11.60
2017,02,16,15,41,11.60
2017,02,16,15,42,11.60
2017,02,16,15,43,11.60
2017,02,16,15,44,11.60
2017,02,16,15,45,11.60
2017,02,16,15,46,11.60
2017,02,16,15,47,11.60
2017,02,16,15,48,11.60
2017,02,16,15,49,11.60
2017,02,16,15,50,11.60
2017,02,16,15,51,11.60
2017,02,16,15,52,11.50
2017,02,16,15,53,11.40
2017,02,16,15,54,11.40
2017,02,16,15,55,11.40
2017,02,16,15,56,11.40
2017,02,16,15,57,11.40
2017,02,16,15,58,11.40
2017,02,16,15,59,11.40
2017,02,16,16,00,11.40
2017,02,16,16,01,11.40
2017,02,16,16,02,11.40
2017,02,16,16,03,11.40
2017,02,16,16,04,11.40
2017,02,16,16,05,11.40
2017,02,16,16,06,11.40
2017,02,16,16,07,11.40
2017,02,16,16,08,11.40
2017,02,16,16,09,11.40
2017,02,16,16,10,11.40
2017,02,16,16,11,11.40
2017,02,16,16,12,11.40
2017,02,16,16,13,11.40
2017,02,16,16,14,11.40
2017,02,16,16,15,11.40
2017,02,16,16,16,11.40
2017,02,16,16,17,11.40
2017,02,16,16,18,11.40
2017,02,16,16,19,11.30
2017,02,16,16,20,11.30
2017,02,16,16,21,11.30
2017,02,16,16,22,11.30
2017,02,16,16,23,11.30
2017,02,16,16,24,11.30
2017,02,16,16,25,11.30
2017,02,16,16,26,11.30
2017,02,16,16,27,11.30
2017,02,16,16,28,11.30
2017,02,16,16,29,11.20
2017,02,16,16,30,11.20
2017,02,16,16,31,11.20
2017,02,16,16,32,11.20
2017,02,16,16,33,11.10
2017,02,16,16,34,11.10
2017,02,16,16,35,11.10
2017,02,16,16,36,11.10
2017,02,16,16,37,11.10
2017,02,16,16,38,11.00
2017,02,16,16,39,10.90
2017,02,16,16,40,10.90
2017,02,16,16,41,10.90
2017,02,16,16,42,10.90
2017,02,16,16,43,10.90
2017,02,16,16,44,10.90
2017,02,16,16,45,10.90
2017,02,16,16,46,10.80
2017,02,16,16,47,10.80
2017,02,16,16,48,10.80
2017,02,16,16,49,10.80
2017,02,16,16,50,10.70
2017,02,16,16,51,10.70
2017,02,16,16,52,10.70
2017,02,16,16,53,10.60
2017,02,16,16,54,10.60
2017,02,16,16,55,10.60
2017,02,16,16,56,10.60
2017,02,16,16,57,10.60
2017,02,16,16,58,10.50
2017,02,16,16,59,10.40
2017,02,16,17,00,10.40
2017,02,16,17,01,10.40
2017,02,16,17,02,10.40
2017,02,16,17,03,10.40
2017,02,16,17,04,10.40
2017,02,16,17,05,10.30
2017,02,16,17,06,10.30
2017,02,16,17,07,10.30
2017,02,16,17,08,10.30
2017,02,16,17,09,10.20
2017,02,16,17,10,10.20
2017,02,16,17,11,10.20
2017,02,16,17,12,10.20
2017,02,16,17,13,10.20
2017,02,16,17,14,10.10
2017,02,16,17,15,10.10
2017,02,16,17,16,10.10
2017,02,16,17,17,10.10
2017,02,16,17,18,10.10
2017,02,16,17,19,10.00
2017,02,16,17,20,9.90
2017,02,16,17,21,9.90
2017,02,16,17,22,9.90
2017,02,16,17,23,9.90
2017,02,16,17,24,9.90
2017,02,16,17,25,9.90
2017,02,16,17,26,9.90
2017,02,16,17,27,9.80
2017,02,16,17,28,9.80
2017,02,16,17,29,9.80
2017,02,16,17,30,9.80
2017,02,16,17,31,9.70
2017,02,16,17,32,9.70
2017,02,16,17,33,9.70
2017,02,16,17,34,9.70
2017,02,16,17,35,9.70
2017,02,16,17,36,9.70
2017,02,16,17,37,9.70
2017,02,16,17,38,9.60
2017,02,16,17,39,9.60
2017,02,16,17,40,9.60
2017,02,16,17,41,9.50
2017,02,16,17,42,9.50
2017,02,16,17,43,9.50
2017,02,16,17,44,9.40
2017,02,16,17,45,9.40
2017,02,16,17,46,9.40
2017,02,16,17,47,9.30
2017,02,16,17,48,9.30
2017,02,16,17,49,9.30
2017,02,16,17,50,9.30
2017,02,16,17,51,9.20
2017,02,16,17,52,9.20
2017,02,16,17,53,9.20
2017,02,16,17,54,9.20
2017,02,16,17,55,9.20
2017,02,16,17,56,9.10
2017,02,16,17,57,9.10
2017,02,16,17,58,9.10
2017,02,16,17,59,9.00
2017,02,16,18,00,9.00
2017,02,16,18,01,9.00
2017,02,16,18,02,8.90
2017,02,16,18,03,8.90
2017,02,16,18,04,8.90
2017,02,16,18,05,8.80
2017,02,16,18,06,8.80
2017,02,16,18,07,8.70
2017,02,16,18,08,8.70
2017,02,16,18,09,8.70
2017,02,16,18,10,8.70
2017,02,16,18,11,8.70
2017,02,16,18,12,8.60
2017,02,16,18,13,8.60
2017,02,16,18,14,8.60
2017,02,16,18,15,8.60
2017,02,16,18,16,8.60
2017,02,16,18,17,8.50
2017,02,16,18,18,8.50
2017,02,16,18,19,8.50
2017,02,16,18,20,8.50
2017,02,16,18,21,8.50
2017,02,16,18,22,8.50
2017,02,16,18,23,8.50
2017,02,16,18,24,8.50
2017,02,16,18,25,8.50
2017,02,16,18,26,8.50
2017,02,16,18,27,8.50
2017,02,16,18,28,8.50
2017,02,16,18,29,8.50
2017,02,16,18,30,8.50
2017,02,16,18,31,8.50
2017,02,16,18,32,8.50
2017,02,16,18,33,8.50
2017,02,16,18,34,8.50
2017,02,16,18,35,8.50
2017,02,16,18,36,8.50
2017,02,16,18,37,8.50
2017,02,16,18,38,8.40
2017,02,16,18,39,8.40
2017,02,16,18,40,8.40
2017,02,16,18,41,8.40
2017,02,16,18,42,8.30
2017,02,16,18,43,8.30
2017,02,16,18,44,8.30
2017,02,16,18,45,8.30
2017,02,16,18,46,8.20
2017,02,16,18,47,8.20
2017,02,16,18,48,8.20
2017,02,16,18,49,8.20
2017,02,16,18,50,8.20
2017,02,16,18,51,8.20
2017,02,16,18,52,8.20
2017,02,16,18,53,8.20
2017,02,16,18,54,8.10
2017,02,16,18,55,8.10
2017,02,16,18,56,8.10
2017,02,16,18,57,8.10
2017,02,16,18,58,8.10
2017,02,16,18,59,8.10
2017,02,16,19,00,8.10
2017,02,16,19,01,8.10
2017,02,16,19,02,8.20
2017,02,16,19,03,8.20
2017,02,16,19,04,8.20
2017,02,16,19,05,8.20
2017,02,16,19,06,8.20
2017,02,16,19,07,8.20
2017,02,16,19,08,8.20
2017,02,16,19,09,8.20
2017,02,16,19,10,8.20
2017,02,16,19,11,8.20
2017,02,16,19,12,8.20
2017,02,16,19,13,8.20
2017,02,16,19,14,8.20
2017,02,16,19,15,8.20
2017,02,16,19,16,8.20
2017,02,16,19,17,8.20
2017,02,16,19,18,8.20
2017,02,16,19,19,8.20
2017,02,16,19,20,8.20
2017,02,16,19,21,8.20
2017,02,16,19,22,8.20
2017,02,16,19,23,8.20
2017,02,16,19,24,8.20
2017,02,16,19,25,8.20
2017,02,16,19,26,8.20
2017,02,16,19,27,8.20
2017,02,16,19,28,8.20
2017,02,16,19,29,8.10
2017,02,16,19,30,8.10
2017,02,16,19,31,8.10
2017,02,16,19,32,8.10
2017,02,16,19,33,8.10
2017,02,16,19,34,8.00
2017,02,16,19,35,8.00
2017,02,16,19,36,8.00
2017,02,16,19,37,8.00
2017,02,16,19,38,7.90
2017,02,16,19,39,7.90
2017,02,16,19,40,7.90
2017,02,16,19,41,7.90
2017,02,16,19,42,7.80
2017,02,16,19,43,7.80
2017,02,16,19,44,7.80
2017,02,16,19,45,7.80
2017,02,16,19,46,7.80
2017,02,16,19,47,7.80
2017,02,16,19,48,7.80
2017,02,16,19,49,7.80
2017,02,16,19,50,7.80
2017,02,16,19,51,7.80
2017,02,16,19,52,7.70
2017,02,16,19,53,7.70
2017,02,16,19,54,7.70
2017,02,16,19,55,7.70
2017,02,16,19,56,7.60
2017,02,16,19,57,7.60
2017,02,16,19,58,7.60
2017,02,16,19,59,7.50
2017,02,16,20,00,7.50
2017,02,16,20,01,7.50
2017,02,16,20,02,7.50
2017,02,16,20,03,7.50
2017,02,16,20,04,7.40
2017,02,16,20,05,7.40
2017,02,16,20,06,7.40
2017,02,16,20,07,7.40
2017,02,16,20,08,7.40
2017,02,16,20,09,7.40
2017,02,16,20,10,7.40
2017,02,16,20,11,7.40
2017,02,16,20,12,7.40
2017,02,16,20,13,7.40
2017,02,16,20,14,7.40
2017,02,16,20,15,7.40
2017,02,16,20,16,7.40
2017,02,16,20,17,7.30
2017,02,16,20,18,7.30
2017,02,16,20,19,7.30
2017,02,16,20,20,7.30
2017,02,16,20,21,7.30
2017,02,16,20,22,7.30
2017,02,16,20,23,7.30
2017,02,16,20,24,7.30
2017,02,16,20,25,7.30
2017,02,16,20,26,7.30
2017,02,16,20,27,7.30
2017,02,16,20,28,7.30
2017,02,16,20,29,7.30
2017,02,16,20,30,7.30
2017,02,16,20,31,7.30
2017,02,16,20,32,7.40
2017,02,16,20,33,7.40
2017,02,16,20,34,7.40
2017,02,16,20,35,7.40
2017,02,16,20,36,7.40
2017,02,16,20,37,7.40
2017,02,16,20,38,7.50
2017,02,16,20,39,7.50
2017,02,16,20,40,7.50
2017,02,16,20,41,7.60
2017,02,16,20,42,7.60
2017,02,16,20,43,7.60
2017,02,16,20,44,7.60
2017,02,16,20,45,7.60
2017,02,16,20,46,7.60
2017,02,16,20,47,7.60
2017,02,16,20,48,7.60
2017,02,16,20,49,7.70
2017,02,16,20,50,7.70
2017,02,16,20,51,7.70
2017,02,16,20,52,7.70
2017,02,16,20,53,7.70
2017,02,16,20,54,7.80
2017,02,16,20,55,7.80
2017,02,16,20,56,7.80
2017,02,16,20,57,7.80
2017,02,16,20,58,7.80
2017,02,16,20,59,7.80
2017,02,16,21,00,7.80
2017,02,16,21,01,7.80
2017,02,16,21,02,7.80
2017,02,16,21,03,7.80
2017,02,16,21,04,7.80
2017,02,16,21,05,7.80
2017,02,16,21,06,7.80
2017,02,16,21,07,7.80
2017,02,16,21,08,7.80
2017,02,16,21,09,7.80
2017,02,16,21,10,7.80
2017,02,16,21,11,7.90
2017,02,16,21,12,7.90
2017,02,16,21,13,7.90
2017,02,16,21,14,7.90
2017,02,16,21,15,7.90
2017,02,16,21,16,7.90
2017,02,16,21,17,7.90
2017,02,16,21,18,7.90
2017,02,16,21,19,7.90
2017,02,16,21,20,7.90
2017,02,16,21,21,8.00
2017,02,16,21,22,8.00
2017,02,16,21,23,8.00
2017,02,16,21,24,8.00
2017,02,16,21,25,8.00
2017,02,16,21,26,8.00
2017,02,16,21,27,8.00
2017,02,16,21,28,8.00
2017,02,16,21,29,8.00
2017,02,16,21,30,8.00
2017,02,16,21,31,7.90
2017,02,16,21,32,7.90
2017,02,16,21,33,7.90
2017,02,16,21,34,7.90
2017,02,16,21,35,7.90
2017,02,16,21,36,7.90
2017,02,16,21,37,7.90
2017,02,16,21,38,7.90
2017,02,16,21,39,7.90
2017,02,16,21,40,7.90
2017,02,16,21,41,8.00
2017,02,16,21,42,8.00
2017,02,16,21,43,8.00
2017,02,16,21,44,8.00
2017,02,16,21,45,8.00
2017,02,16,21,46,8.00
2017,02,16,21,47,8.00
2017,02,16,21,48,8.00
2017,02,16,21,49,8.10
2017,02,16,21,50,8.10
2017,02,16,21,51,8.10
2017,02,16,21,52,8.20
2017,02,16,21,53,8.20
2017,02,16,21,54,8.20
2017,02,16,21,55,8.20
2017,02,16,21,56,8.20
2017,02,16,21,57,8.20
2017,02,16,21,58,8.20
2017,02,16,21,59,8.20
2017,02,16,22,00,8.20
2017,02,16,22,01,8.20
2017,02,16,22,02,8.20
2017,02,16,22,03,8.20
2017,02,16,22,04,8.20
2017,02,16,22,05,8.20